紫金山第2彗星

60P/Tsuchinshan 2 (2018)

English version
Home page
Updated on April 4, 2021

---------------------------------------------------------------------

・ プロフィール

・ 写真集

・ 軌道要素

Epoch 2018 Dec. 28.0 TT = JDT 2458480.5                                         
T 2018 Dec. 11.23215 TT                                 Rudenko                 
q   1.6226476            (2000.0)            P               Q                  
n   0.14986368     Peri.  216.55271     -0.55998302     -0.82611692             
a   3.5102533      Node   267.58345     +0.77426211     -0.49481691             
e   0.5377406      Incl.    3.60651     +0.29485115     -0.26960538             
P   6.58                                                                        
From 1552 observations 1971 Sept. 19-2019 June 23, mean residual 0".8.          
     Nongravitational parameters A1 = -0.03, A2 = +0.0005.                      

・ 星図

・ 光度変化

        m1 = 8.3 + 5 logΔ + 25 log r(t - 35)

---------------------------------------------------------------------

軌道要素はM.P.E.C. 2021-F20に掲載されたものです。
星図はステラナビゲータ Ver.10 (アストロアーツ) で作成したものです。
光度グラフはComet for Windowsで作成したものです。

---------------------------------------------------------------------

Copyright(C) Seiichi Yoshida (comet@aerith.net). All rights reserved.